Winfield, KS

11:09 PM CST on December 14, 2019 (GMT -0600)
Strother

Weather History for KWLD - October, 2019

Change the Weather History Date:

Friday, October 11, 2019

  Actual Average Record
Temperature  
Mean Temperature 42 °F -  
Max Temperature 52 °F 70 °F 90 °F (2015)
Min Temperature 34 °F 47 °F 37 °F (2017)
Degree Days  
Heating Degree Days 22    
Moisture  
Dew Point 26 °F    
Average Humidity 58    
Maximum Humidity 76    
Minimum Humidity 29    
Precipitation  
Precipitation 0.00 in - - ()
Sea Level Pressure  
Sea Level Pressure 30.29 in    
Wind  
Wind Speed 14 mph ()    
Max Wind Speed 24 mph    
Max Gust Speed 37 mph    
Visibility 10.0 miles    
Events      
Averages and records for this station are not official NWS values.
T = Trace of Precipitation, MM = Missing Value Source: Averaged Metar Reports

Daily Weather History Graph

Daily Weather History Graph

Search for Another Location

Airport or City:

Astronomy

Oct. 11, 2019 Rise Set
Actual Time 7:32 AM CDT 6:57 PM CDT
Civil Twilight 7:06 AM CDT 7:23 PM CDT
Nautical Twilight 6:35 AM CDT 7:53 PM CDT
Astronomical Twilight 6:05 AM CDT 8:23 PM CDT
Moon 6:22 PM CDT (10/11) 5:18 AM CDT (10/11)
Length of Visible Light 12h 17m
Length of Day
11h 24m
Waxing Gibbous, 96% of the Moon is Illuminated
Oct 11
Waxing Gibbous
Oct 13
Full
Oct 21
Last Quarter
Oct 27
New
Nov 4
First Quarter

Hourly Weather History & Observations

Time (CDT) Temp. Windchill Dew Point Humidity Pressure Visibility Wind Dir Wind Speed Gust Speed Precip Events Conditions
12:31 AM 39.0 °F 29.0 °F 28.9 °F 67% 30.15 in 10.0 mi North 20.7 mph 36.8 mph N/A   Scattered Clouds
12:54 AM 37.9 °F 27.9 °F 30.0 °F 73% 30.17 in 10.0 mi NNW 19.6 mph 27.6 mph N/A   Clear
1:54 AM 39.0 °F 31.0 °F 28.9 °F 67% 30.19 in 10.0 mi NNW 13.8 mph 27.6 mph N/A   Overcast
2:54 AM 37.9 °F 28.9 °F 28.9 °F 70% 30.21 in 10.0 mi NNW 16.1 mph 25.3 mph N/A   Mostly Cloudy
3:54 AM 37.9 °F 26.8 °F 28.0 °F 68% 30.23 in 10.0 mi NNW 24.2 mph 32.2 mph N/A   Overcast
4:54 AM 37.0 °F 27.0 °F 26.1 °F 65% 30.25 in 10.0 mi NNW 18.4 mph 31.1 mph N/A   Scattered Clouds
5:54 AM 36.0 °F 27.1 °F 26.1 °F 67% 30.27 in 10.0 mi NW 13.8 mph - N/A   Clear
6:54 AM 35.1 °F 25.5 °F 26.1 °F 70% 30.29 in 10.0 mi NW 15.0 mph - N/A   Clear
7:54 AM 34.0 °F 25.0 °F 26.1 °F 73% 30.31 in 10.0 mi NW 12.7 mph - N/A   Clear
8:54 AM 36.0 °F 26.0 °F 26.1 °F 67% 30.35 in 10.0 mi NW 17.3 mph 25.3 mph N/A   Clear
9:54 AM 39.0 °F 29.6 °F 26.1 °F 60% 30.37 in 10.0 mi NW 18.4 mph - N/A   Clear
10:54 AM 42.1 °F 33.9 °F 26.1 °F 53% 30.38 in 10.0 mi NNW 17.3 mph - N/A   Clear
11:54 AM 44.1 °F 35.4 °F 23.0 °F 43% 30.37 in 10.0 mi NW 21.9 mph 28.8 mph N/A   Clear
12:54 PM 46.9 °F - 24.1 °F 41% 30.35 in 10.0 mi NW 21.9 mph 28.8 mph N/A   Clear
1:54 PM 48.9 °F - 26.1 °F 41% 30.33 in 10.0 mi NW 15.0 mph 24.2 mph N/A   Clear
2:54 PM 51.1 °F - 24.1 °F 35% 30.31 in 10.0 mi NW 16.1 mph 27.6 mph N/A   Clear
3:54 PM 51.1 °F - 21.9 °F 32% 30.30 in 10.0 mi NW 19.6 mph 29.9 mph N/A   Clear
4:54 PM 51.1 °F - 19.9 °F 29% 30.30 in 10.0 mi NW 21.9 mph 27.6 mph N/A   Clear
5:54 PM 50.0 °F - 21.0 °F 32% 30.29 in 10.0 mi NW 13.8 mph - N/A   Clear
6:54 PM 45.0 °F 42.6 °F 24.1 °F 44% 30.29 in 10.0 mi WNW 4.6 mph - N/A   Clear
7:54 PM 39.9 °F 37.8 °F 28.0 °F 63% 30.29 in 10.0 mi South 3.5 mph - N/A   Clear
8:54 PM 37.9 °F 35.5 °F 30.0 °F 73% 30.29 in 10.0 mi South 3.5 mph - N/A   Clear
9:54 PM 37.0 °F 33.3 °F 30.0 °F 76% 30.29 in 10.0 mi South 4.6 mph - N/A   Clear
10:54 PM 36.0 °F 33.3 °F 28.9 °F 76% 30.29 in 10.0 mi SSE 3.5 mph - N/A   Clear
11:54 PM 35.1 °F - 28.0 °F 76% 30.28 in 10.0 mi Calm Calm - N/A   Clear